FW0689 Weather Reports


Display with metric or nautical units.
time (UTC)temp
F
wind
direction
speed
MPH
gust
MPH
rain 1hr
in
rain 24hr
in
rain mn
in
humidity
%
barometer
mb
20260901190332 57 270 0.0 0.0 0.00 0.00 0.00 41 1025.1
20260901185332 58 292 0.0 0.0 0.00 0.00 0.00 41 1025.0
20260901184332 58 292 0.0 0.0 0.00 0.00 0.00 41 1025.0
20260901183334 60 292 0.0 0.0 0.00 0.00 0.00 41 1024.9
20260901182335 61 292 0.0 0.0 0.00 0.00 0.00 40 1025.0
20260901181332 62 292 0.0 0.0 0.00 0.00 0.00 40 1024.9
20260901175347 64 300 0.0 0.0 0.00 0.00 0.00 40 1024.9
20260901174431 64 291 0.0 0.0 0.00 0.00 0.00 40 1024.9
20260901173433 64 292 0.0 0.0 0.00 0.00 0.00 39 1024.7
20260901172432 64 291 0.0 0.0 0.00 0.00 0.00 40 1024.7
20260901170434 65 313 0.0 0.0 0.00 0.00 0.00 40 1024.6
20260901164433 65 291 0.0 0.0 0.00 0.00 0.00 40 1024.6
20260901163432 66 288 0.0 0.0 0.00 0.00 0.00 41 1024.4
20260901161432 67 274 0.0 0.0 0.00 0.00 0.00 41 1024.3
20260901160436 67 287 0.0 0.0 0.00 0.00 0.00 41 1024.2
20260901155532 66 266 0.0 0.0 0.00 0.00 0.00 41 1024.2
20260901154631 66 267 0.0 0.0 0.00 0.00 0.00 41 1024.3
20260901153635 66 268 0.0 0.0 0.00 0.00 0.00 42 1024.3
20260901152633 66 266 0.0 0.0 0.00 0.00 0.00 42 1024.3
20260901150631 67 276 0.0 0.0 0.00 0.00 0.00 41 1024.1
20260901145634 67 295 0.0 0.0 0.00 0.00 0.00 43 1024.1
20260901144632 66 304 0.0 0.0 0.00 0.00 0.00 42 1024.0
20260901143634 67 285 0.0 0.0 0.00 0.00 0.00 42 1024.0
20260901142631 67 291 0.0 0.0 0.00 0.00 0.00 41 1023.9
20260901141632 67 296 0.0 0.0 0.00 0.00 0.00 40 1024.1
20260901140731 66 269 0.0 0.0 0.00 0.00 0.00 40 1024.0
20260901135732 65 277 0.0 0.0 0.00 0.00 0.00 41 1024.0
20260901134733 66 277 0.0 0.0 0.00 0.00 0.00 40 1024.0
20260901133732 66 291 0.0 0.0 0.00 0.00 0.00 39 1024.0
20260901132733 66 286 0.0 0.0 0.00 0.00 0.00 39 1023.9
20260901131732 66 295 0.0 0.0 0.00 0.00 0.00 40 1023.8
20260901130734 66 291 0.0 0.0 0.00 0.00 0.00 41 1023.8
20260901125733 66 299 0.0 0.0 0.00 0.00 0.00 41 1023.8
20260901124831 67 289 0.0 0.0 0.00 0.00 0.00 40 1023.8
20260901123833 67 280 0.0 0.0 0.00 0.00 0.00 41 1023.7
20260901122833 66 275 0.0 0.0 0.00 0.00 0.00 40 1023.8
20260901121932 67 282 0.0 0.0 0.00 0.00 0.00 39 1023.8
20260901120034 67 289 0.0 0.0 0.00 0.00 0.00 39 1023.7
20260901115031 66 311 0.0 0.0 0.00 0.00 0.00 40 1023.6
20260901114032 67 279 0.0 0.0 0.00 0.00 0.00 40 1023.6
20260901113131 66 281 0.0 0.0 0.00 0.00 0.00 39 1023.4
20260901112133 66 263 0.0 0.0 0.00 0.00 0.00 39 1023.7
20260901111133 67 295 0.0 0.0 0.00 0.00 0.00 39 1023.5
20260901110131 67 270 0.0 0.0 0.00 0.00 0.00 39 1023.6
20260901105133 67 276 0.0 0.0 0.00 0.00 0.00 39 1023.6
20260901104231 67 308 0.0 0.0 0.00 0.00 0.00 39 1023.5
20260901102234 65 268 0.0 0.0 0.00 0.00 0.00 40 1023.6
20260901100334 66 264 0.0 0.0 0.00 0.00 0.00 39 1023.5
20260901095332 65 256 0.0 0.0 0.00 0.00 0.00 40 1023.5
20260901094333 65 271 0.0 0.0 0.00 0.00 0.00 40 1023.5
20260901093335 65 263 0.0 0.0 0.00 0.00 0.00 40 1023.5
20260901092332 65 269 0.0 0.0 0.00 0.00 0.00 40 1023.5
20260901091331 66 261 0.0 0.0 0.00 0.00 0.00 40 1023.4
20260901090348 66 247 0.0 0.0 0.00 0.00 0.00 40 1023.2
20260901084335 66 242 0.0 0.0 0.00 0.00 0.00 38 1023.1
20260901080531 64 236 0.0 0.0 0.00 0.00 0.00 39 1023.0
20260901075533 64 271 0.0 0.0 0.00 0.00 0.00 39 1022.9
20260901074631 63 239 0.0 0.0 0.00 0.00 0.00 39 1022.8
20260901073633 63 238 0.0 0.0 0.00 0.00 0.00 39 1022.8
20260901071733 63 239 0.0 0.0 0.00 0.00 0.00 40 1022.5
20260901070734 62 225 0.0 0.0 0.00 0.00 0.00 40 1022.5
20260901065733 62 238 0.0 0.0 0.00 0.00 0.00 40 1022.4
20260901064732 62 244 0.0 0.0 0.00 0.00 0.00 40 1022.3
20260901063748 61 237 0.0 0.0 0.00 0.00 0.00 41 1022.3
20260901062832 61 235 0.0 0.0 0.00 0.00 0.00 41 1022.2
20260901061931 61 219 0.0 0.0 0.00 0.00 0.00 41 1022.2
20260901060934 60 238 0.0 0.0 0.00 0.00 0.00 41 1022.1
20260901055932 60 212 0.0 0.0 0.00 0.00 0.00 41 1021.9
20260901054932 59 212 0.0 0.0 0.00 0.00 0.00 41 1022.0
20260901053932 59 226 0.0 0.0 0.00 0.00 0.00 42 1022.0
20260901052947 59 203 0.0 0.0 0.00 0.00 0.00 42 1021.8
20260901051934 59 202 0.0 0.0 0.00 0.00 0.00 42 1021.7
20260901044932 59 225 0.0 0.0 0.00 0.00 0.00 42 1021.5
20260901043931 59 247 0.0 0.0 0.00 0.00 0.00 42 1021.5
20260901042933 59 228 0.0 0.0 0.00 0.00 0.00 42 1021.5
20260901041935 59 233 0.0 0.0 0.00 0.00 0.00 42 1021.5
20260901040933 59 229 0.0 0.0 0.00 0.00 0.00 42 1021.2
20260901040032 59 211 0.0 0.0 0.00 0.00 0.00 42 1021.2
20260901035130 59 215 0.0 0.0 0.00 0.00 0.00 42 1021.2
20260901034134 59 203 0.0 0.0 0.00 0.00 0.00 42 1021.1
20260901033231 59 231 0.0 0.0 0.00 0.00 0.00 42 1021.2
20260901032236 59 230 0.0 0.0 0.00 0.00 0.00 42 1021.1
20260901031233 59 202 0.0 0.0 0.00 0.00 0.00 42 1021.0
20260901030331 59 202 0.0 0.0 0.00 0.00 0.00 42 1020.9
20260901024334 59 225 0.0 0.0 0.00 0.00 0.00 42 1020.8
20260901023431 59 204 0.0 0.0 0.00 0.00 0.00 42 1020.8
20260901022432 59 202 0.0 0.0 0.00 0.00 0.00 42 1020.9
20260901021433 59 225 0.0 0.0 0.00 0.00 0.00 42 1020.8
20260901020434 59 220 0.0 0.0 0.00 0.00 0.00 42 1020.8
20260901015531 59 202 0.0 0.0 0.00 0.00 0.00 42 1020.9
20260901014535 58 205 0.0 0.0 0.00 0.00 0.00 42 1020.7
20260901013633 58 199 0.0 0.0 0.00 0.00 0.00 42 1020.8
20260901012633 58 215 0.0 0.0 0.00 0.00 0.00 42 1020.6
20260901011634 58 184 0.0 0.0 0.00 0.00 0.00 42 1020.6
20260901010730 58 202 0.0 0.0 0.00 0.00 0.00 42 1020.6
20260901005749 58 202 0.0 0.0 0.00 0.00 0.00 42 1020.6
20260901004735 58 202 0.0 0.0 0.00 0.00 0.00 42 1020.5
20260901003732 58 213 0.0 0.0 0.00 0.00 0.00 42 1020.4
20260901002731 58 270 0.0 0.0 0.00 0.00 0.00 42 1020.3
20260901001734 58 241 0.0 0.0 0.00 0.00 0.00 42 1020.3
20260901000735 58 202 0.0 0.0 0.00 0.00 0.00 42 1020.3
20260831235733 59 228 0.0 0.0 0.00 0.00 0.00 42 1020.3
20260831233831 59 202 0.0 0.0 0.00 0.00 0.00 42 1020.2
20260831232847 59 227 0.0 0.0 0.00 0.00 0.00 42 1020.1
20260831225831 59 202 0.0 0.0 0.00 0.00 0.00 42 1020.1
20260831224832 59 245 0.0 0.0 0.00 0.00 0.00 42 1020.1
20260831223832 59 247 0.0 0.0 0.00 0.00 0.00 41 1020.1
20260831222931 59 251 0.0 0.0 0.00 0.00 0.00 41 1020.1
20260831221932 59 230 0.0 0.0 0.00 0.00 0.00 41 1020.0
20260831221031 59 242 0.0 0.0 0.00 0.00 0.00 41 1020.0
20260831220131 59 222 0.0 0.0 0.00 0.00 0.00 41 1020.0
20260831215126 59 236 0.0 0.0 0.00 0.00 0.00 41 1019.9
20260831214128 59 245 0.0 0.0 0.00 0.00 0.00 41 1019.9
20260831213128 60 234 0.0 0.0 0.00 0.00 0.00 41 1019.8
20260831212128 60 246 0.0 0.0 0.00 0.00 0.00 41 1019.8
20260831211126 60 241 0.0 0.0 0.00 0.00 0.00 41 1019.6
20260831210144 60 254 0.0 0.0 0.00 0.00 0.00 41 1019.6
20260831205127 60 246 0.0 0.0 0.00 0.00 0.00 41 1019.4
20260831204126 60 252 0.0 0.0 0.00 0.00 0.00 41 1019.3
20260831203126 60 250 0.0 0.0 0.00 0.00 0.00 41 1019.3
20260831202127 61 234 0.0 0.0 0.00 0.00 0.00 41 1019.2
20260831201127 61 249 0.0 0.0 0.00 0.00 0.00 41 1019.0
20260831200227 61 242 0.0 0.0 0.00 0.00 0.00 41 1018.7
20260831194243 60 247 0.0 0.0 0.00 0.00 0.00 41 1018.5
20260831193228 60 253 0.0 0.0 0.00 0.00 0.00 41 1018.4
20260831192228 60 253 0.0 0.0 0.00 0.00 0.00 41 1018.3
20260831191228 60 249 0.0 0.0 0.00 0.00 0.00 40 1018.3